• Join FlightAware (Why Join?)
  • Login
  • US Flag 
06:43AM EDT


 

Airport Tracker/Info


-or-


 

Live Flight TrackerFlight Track Log ✈ PDT4144 ✈ 30-Apr-2012 ✈ KAGS - KCLT

Flight Track Log - Related Links

Times and Time Zones

All times are in EDT time to prevent confusion due to time zone crossing. See the PDT4144 flight status page for this flight to view local times or setup timezone preferences in your user account.

Time Position Orientation Groundspeed Altitude Reporting Facility
EDT Latitude Longitude Course Direction KTS MPH feet Rate Location/Type
01:01PM 33.3823 -81.9577 262° West  Level FlightAware Approximate
01:02PM 33.4318 -81.9307 242° Southwest  Level FlightAware Approximate
01:03PM 33.4813 -81.9036 231° Southwest  Level FlightAware Approximate
01:04PM 33.5307 -81.8765 225° Southwest  Level FlightAware Approximate
01:05PM 33.3694 -82.0714 356° North 178 205 5,200  Level Atlanta Center
01:06PM 33.4175 -82.0753 356° North 166 191 6,500 1,140 Climbing Atlanta Center
01:07PM 33.4675 -82.0792 357° North 166 191 7,500 960 Climbing Atlanta Center
01:08PM 33.5178 -82.0828 357° North 185 213 8,500 960 Climbing Atlanta Center
01:09PM 33.5722 -82.0867 355° North 190 219 9,500 960 Climbing Atlanta Center
01:10PM 33.6306 -82.0928 355° North 196 226 10,500 720 Climbing Atlanta Center
01:11PM 33.6869 -82.0989 356° North 201 231 11,000 240 Climbing Atlanta Center
01:12PM 33.7539 -82.1050 356° North 212 244 11,000  Level Atlanta Center
01:13PM 33.8272 -82.1108 355° North 242 278 11,000  Level Atlanta Center
01:14PM 33.9003 -82.1192 355° North 253 291 11,000  Level Atlanta Center
01:15PM 33.9756 -82.1275 356° North 258 297 11,000  Level Atlanta Center
01:16PM 34.0508 -82.1333 355° North 263 303 11,000  Level Atlanta Center
01:17PM 34.1261 -82.1417 355° North 263 303 11,000  Level Atlanta Center
01:18PM 34.2075 -82.1500 18° North 269 310 11,000  Level Atlanta Center
01:19PM 34.2761 -82.1233 46° Northeast 259 298 11,000  Level Atlanta Center
01:20PM 34.3292 -82.0567 48° Northeast 253 291 11,000  Level Atlanta Center
01:21PM 34.3822 -81.9850 45° Northeast 266 306 11,000  Level Atlanta Center
01:22PM 34.4356 -81.9206 46° Northeast 272 313 11,000  Level Atlanta Center
01:23PM 34.4886 -81.8539 46° Northeast 272 313 11,000  Level Atlanta Center
01:24PM 34.5436 -81.7842 48° Northeast 272 313 11,000  Level Atlanta Center
01:25PM 34.5944 -81.7147 44° Northeast 272 313 11,000  Level Atlanta Center
01:26PM 34.6497 -81.6500 46° Northeast 272 313 11,000  Level Atlanta Center
01:27PM 34.7047 -81.5803 45° Northeast 272 313 11,000  Level Atlanta Center
01:28PM 34.7372 -81.5414 47° Northeast 279 321 11,000  Level Atlanta Center
01:29PM 34.7900 -81.4717 47° Northeast 279 321 11,000 -180 Level Atlanta Center
01:30PM 34.8469 -81.3964 45° Northeast 280 322 10,700 -660 Descending Atlanta Center
01:31PM 34.9039 -81.3264 48° Northeast 293 337 9,700 -900 Descending Atlanta Center
01:32PM 34.9544 -81.2589 46° Northeast 267 307 8,900 -420 Descending Atlanta Center
01:33PM 35.0031 -81.1964 46° Northeast 255 293 8,900  Level Atlanta Center
01:34PM 35.0578 -81.1283 47° Northeast 260 299 8,900  Level Atlanta Center
01:35PM 35.1083 -81.0631 24° Northeast 262 302 8,900  Level Atlanta Center
01:36PM 35.1681 -81.0306 337° Northwest 250 288 8,900 -420 Level Atlanta Center
01:37PM 35.2231 -81.0592 353° North 245 282 8,200 -840 Descending Atlanta Center
01:38PM 35.3006 -81.0714 351° North 237 273 7,200 -1,020 Descending Atlanta Center
01:39PM 35.3572 -81.0822 North 237 273 6,200 -1,200 Descending Atlanta Center
01:40PM 35.4281 -81.0744 85° East 255 293 4,900 -1,080 Descending Atlanta Center
01:41PM 35.4325 -81.0081 85° East 201 231 3,900 -900 Descending Atlanta Center